Regional Weather Roundup
Issued by NWS State College, PA

Home | Current Version | Previous Version | Text Only | Print | Product List | Glossary Off
Versions: 1 2 3 4 5 6 7 8 9 10 11 12 13 14 15 16 17 18 19 20 21 22 23 24 25 26 27 28 29 30 31 32 33 34 35 36 37 38 39 40 41 42 43 44 45 46 47 48 49 50

000
ASUS41 KCTP 221303
RWRCTP

REGIONAL WEATHER ROUNDUP
NATIONAL WEATHER SERVICE STATE COLLEGE PA
900 AM EDT TUE JUL 22 2014

Note: "fair" indicates few or no clouds below 12,000 feet with no
significant weather and/or obstructions to visibility.

* = STATION THAT DOES NOT REPORT PRECIPITATION /E.G. RAIN...SNOW...ETC/
    THUNDER OR FOG.

PAZ002>004-007>009-013>016-020>023-029>032-221400-
WESTERN PENNSYLVANIA

CITY           SKY/WX    TMP DP  RH WIND       PRES   REMARKS
ERIE           SUNNY     75  67  76 S7        30.13F
MEADVILLE      SUNNY     73  67  81 VRB3      30.17F
FRANKLIN*      SUNNY     72  66  83 S7        30.19F
NEW CASTLE       N/A     75  70  85 CALM      30.17S
BEAVER COUNTY  SUNNY     72  68  88 S3        30.17S
BUTLER*        SUNNY     73  68  83 S5        30.20R
PITTSBURGH INT MOSUNNY   74  69  85 S3        30.17R
PITTSBURGH     SUNNY     75  68  78 SW5       30.17R
INDIANA*       SUNNY     75  68  78 S6        30.23R
LATROBE        SUNNY     75  72  88 CALM      30.19S
WASHINGTON CO* SUNNY     75  70  83 S3        30.19S
$$

PAZ004>006-010>012-017>019-024>028-033>037-041-042-045-046-049>053-221400-
CENTRAL PENNSYLVANIA

CITY           SKY/WX    TMP DP  RH WIND       PRES   REMARKS
BRADFORD       CLOUDY    68  67  96 S3        30.21F FOG
DUBOIS         SUNNY     73  68  84 S5        30.20S
CLEARFIELD     FOG       67  67 100 CALM      30.21S VSB 1/2
JOHNSTOWN      SUNNY     70  65  84 SW7       30.23S
ALTOONA        PTSUNNY   74  69  85 SE3       30.22S
STATE COLLEGE  CLOUDY    72  68  88 CALM      30.21S FOG
WILLIAMSPORT   CLOUDY    71  66  84 CALM      30.17S
SELINSGROVE    CLOUDY    73  67  81 CALM      30.19S
FT INDIANTOWN  LGT RAIN  71  71 100 CALM      30.20S
CAPITAL CITY   CLOUDY    75  67  76 N6        30.19S
HARRISBURG     CLOUDY    75  68  78 S5        30.19S
YORK           CLOUDY    73  69  87 SW6       30.20S
$$

PAZ038>040-043-044-047-048-054-055-060>062-067>071-221400-
EASTERN PENNSYLVANIA

CITY           SKY/WX    TMP DP  RH WIND       PRES   REMARKS
SCRANTON       SUNNY     74  64  71 SW3       30.20S
MOUNT POCONO   SUNNY     71  64  78 W9        30.23F
ALLENTOWN      SUNNY     74  65  73 CALM      30.19F
QUAKERTOWN*    SUNNY     73  66  78 S5        30.21F
READING        CLOUDY    74  66  76 CALM      30.19S
LANCASTER      PTSUNNY   75  69  81 W6        30.20S
COATESVILLE    CLOUDY    68  68 100 CALM      30.22F FOG
POTTSTOWN      SUNNY     72  67  84 CALM      30.21F
BLUE BELL      SUNNY     77  70  78 SW3       30.19F
DOYLESTOWN     SUNNY     74  67  78 SW5       30.19F
WILLOW GROVE   NOT AVBL
NORTH PHILA    SUNNY     79  66  64 S6        30.21F
PHILADELPHIA   MOSUNNY   76  66  71 SW6       30.20S
$$


USA.gov is the U.S. government's official web portal to all federal, state and local government web resources and services.